Dewpoint
58 58 58 58 57 57 57 57 57 57 57 57 57 57 57 57 57 57 57 57 57 57 58 58 58 58 57 57 57 57 57 57 57 57 57 57 58 58 59 61 62 62 61 61 61 61 61 60 57 55 54 55 55 55 56 57 57 58 57 58 58 57 57 61 62 64 64 64 65 65 65 65 65 65 65 65 65 65 65 65 65 66 65 65 65 65 65 65 65 65 65 65 65 66 66 66 67 67 67 67 67 68 69
58 58 57 57 57 57 57 57 57 57 57 57 57 57 57 57 57 57 57 57 57 57 57 58 57 57 57 57 57 57 57 57 57 57 57 57 58 58 58 60 61 61 61 61 61 61 61 59 56 54 53 54 54 55 55 56 57 57 56 57 57 57 58 61 62 63 64 64 64 65 65 65 65 65 65 65 66 66 65 66 66 66 66 66 65 65 65 65 65 65 65 65 65 65 65 66 66 67 67 67 67 67 68
58 57 57 57 57 57 57 57 57 57 57 57 57 57 57 57 57 57 57 57 57 57 58 58 57 57 57 57 57 57 57 57 57 57 57 57 58 58 58 59 60 60 60 60 60 60 61 60 56 53 53 53 53 53 54 55 55 56 56 57 57 57 58 61 62 63 63 64 64 65 65 65 65 65 65 65 65 66 66 66 66 66 66 65 65 65 65 65 65 65 65 65 64 64 65 66 66 67 67 67 66 67 67
57 57 57 57 57 57 57 57 57 57 57 57 57 57 56 56 56 56 57 57 57 57 58 58 58 57 57 57 57 57 57 58 58 58 58 58 58 58 58 59 59 60 60 60 60 60 60 61 58 54 52 52 52 53 53 55 56 56 56 57 57 57 59 61 62 62 63 63 64 64 65 65 65 65 65 65 65 65 65 65 65 65 65 65 65 65 65 65 65 65 65 64 64 64 65 65 66 66 66 67 67 67 67
57 57 57 57 57 57 57 57 57 57 57 57 57 57 56 56 56 56 57 57 57 57 58 58 58 58 58 57 57 57 58 58 58 58 58 58 58 58 58 58 59 59 59 59 59 59 57 58 57 54 52 52 52 52 52 54 56 57 56 56 56 57 60 60 61 62 62 63 63 64 64 64 64 64 65 65 65 65 65 65 65 65 65 64 64 64 64 64 64 64 64 64 64 64 64 65 65 65 66 66 66 67 67
57 56 57 57 57 57 57 57 57 57 57 57 57 57 56 56 56 56 56 57 57 57 57 58 58 58 58 58 57 57 57 57 58 58 58 58 58 58 58 58 58 59 59 59 59 58 57 55 53 51 51 51 51 52 52 53 54 54 54 54 55 57 59 60 60 61 62 62 62 63 63 63 63 63 64 64 64 64 64 64 64 64 64 64 64 64 64 64 64 64 64 64 64 64 65 65 64 64 65 65 66 66 67
56 56 57 57 57 57 57 57 57 57 57 57 57 57 56 56 56 56 56 56 57 57 57 57 57 58 57 57 57 57 57 57 57 57 58 58 58 58 58 58 58 58 58 58 58 57 56 53 51 50 50 50 50 50 50 52 53 53 53 53 56 57 58 59 60 60 61 61 62 62 62 62 62 62 62 62 62 62 63 63 63 63 63 63 63 63 63 64 64 64 64 64 64 64 65 65 64 64 64 65 65 66 66
56 56 56 56 57 57 57 57 57 57 57 57 57 57 57 56 56 56 56 56 57 57 57 57 57 57 57 57 57 57 57 57 57 57 57 57 58 58 58 58 58 58 58 58 58 57 57 54 52 50 49 50 50 50 50 50 51 51 52 53 55 57 58 59 59 59 60 60 60 60 61 61 61 61 62 62 62 62 62 62 62 62 62 62 62 62 62 62 63 63 63 63 64 64 64 64 64 64 64 65 65 65 66
56 56 56 56 56 57 57 56 56 56 57 57 57 57 57 56 56 56 56 56 56 57 57 57 57 57 57 57 57 57 57 57 57 57 57 57 58 58 58 58 58 58 58 58 57 57 57 56 53 51 50 50 51 51 52 51 50 51 52 53 55 57 58 59 59 59 59 59 59 60 60 61 61 61 61 61 61 61 61 61 61 61 61 61 61 61 61 61 62 62 62 62 63 63 63 64 64 64 65 64 65 65 65
56 56 56 56 56 57 57 56 56 56 57 57 57 57 57 57 56 56 56 56 56 57 57 57 57 57 57 57 57 57 57 57 57 57 57 58 58 58 58 58 58 58 57 57 57 57 57 56 53 51 50 50 50 52 54 52 51 51 52 54 57 58 59 59 59 59 59 59 59 60 60 60 60 60 60 60 60 60 60 60 60 60 60 60 59 59 60 60 61 61 62 62 62 62 63 63 64 64 64 64 64 65 65
56 56 56 56 56 56 56 56 56 56 57 57 57 56 56 56 56 56 56 56 56 57 57 57 57 57 57 57 57 57 57 57 57 57 57 58 58 58 58 57 57 57 57 57 57 57 58 56 53 50 50 50 51 53 52 52 52 53 53 55 57 59 59 59 60 60 60 60 60 60 60 60 60 60 60 60 60 60 60 60 60 60 60 60 60 60 60 60 61 61 61 62 62 62 62 63 63 64 64 64 64 65 65
56 56 56 56 56 56 56 56 56 57 57 57 56 56 56 56 56 56 56 56 57 57 57 57 57 57 57 57 57 57 57 57 57 57 57 57 57 57 57 57 57 57 57 57 57 58 59 55 52 50 50 50 51 51 51 51 51 51 52 55 57 59 60 60 60 60 60 60 61 61 61 61 61 60 60 60 60 60 60 60 61 61 61 61 61 61 61 61 61 61 61 62 62 62 62 63 63 63 64 64 64 64 65
56 56 56 56 56 56 56 56 56 56 57 56 56 56 56 56 56 56 56 56 56 57 57 57 57 57 57 57 57 57 57 57 57 57 57 57 57 57 57 57 57 57 57 57 58 58 57 53 51 51 50 51 51 50 51 52 52 52 53 57 58 59 60 60 60 61 61 61 61 61 61 61 61 61 61 61 61 61 61 61 61 61 61 61 61 61 61 61 61 61 61 61 62 62 62 62 63 63 63 64 64 64 65
56 56 56 56 56 56 56 56 56 56 56 56 56 56 55 55 55 55 55 56 56 56 56 57 57 57 57 57 57 57 57 57 57 57 57 57 57 57 57 57 57 57 58 58 57 55 53 52 51 51 50 51 51 51 54 53 53 53 56 57 59 59 60 60 61 61 61 61 61 61 61 61 61 61 61 61 61 61 61 61 61 61 61 61 61 61 61 61 61 61 61 61 62 62 62 62 62 62 63 63 64 64 65
56 56 56 56 56 56 56 56 55 55 55 55 55 55 55 55 54 54 55 55 55 55 56 56 56 56 56 56 56 56 56 57 57 57 57 56 56 56 57 57 57 58 58 57 54 52 51 51 51 51 52 51 51 52 54 54 53 54 57 58 59 60 60 60 61 61 61 61 61 61 61 61 61 61 61 61 61 61 61 61 61 61 61 61 61 61 61 61 61 61 61 61 62 62 62 62 62 62 62 63 63 64 64
56 56 56 56 55 55 55 55 55 55 54 54 54 54 54 54 54 54 54 54 54 55 55 55 56 56 56 56 56 56 56 57 57 57 57 56 57 57 57 57 57 57 57 54 52 51 50 50 50 51 52 51 51 52 53 53 54 56 58 59 59 60 60 60 61 61 61 61 61 61 61 62 62 62 62 61 61 61 61 61 61 61 62 62 62 61 61 61 61 61 61 62 62 62 62 62 62 62 62 62 62 63 63
55 55 55 55 55 55 55 55 55 54 54 54 54 54 54 54 54 54 55 55 55 55 55 55 55 55 55 55 56 56 55 55 55 56 57 57 57 57 57 57 57 56 53 52 51 50 50 50 50 51 52 51 51 52 53 53 55 57 58 59 59 60 60 60 61 61 61 61 61 61 61 62 62 62 62 61 61 61 61 61 62 62 62 62 62 62 61 61 62 62 62 62 62 62 62 62 62 62 62 62 62 62 63
54 55 55 55 55 55 55 55 55 55 55 54 54 54 54 54 55 55 55 55 55 55 55 55 55 56 56 56 57 56 53 52 52 53 55 56 57 57 57 57 56 53 50 51 51 50 50 50 51 51 52 51 51 52 54 54 56 58 58 59 59 60 60 60 61 61 61 61 61 61 61 62 62 62 61 61 61 61 61 61 61 61 62 62 62 62 62 62 62 62 62 62 62 62 62 62 62 62 62 62 62 62 62
54 54 55 55 55 55 55 55 55 55 55 55 55 55 55 55 55 55 55 55 55 56 56 56 56 56 57 57 56 54 51 49 50 51 52 53 55 56 56 55 53 51 50 50 50 49 49 50 50 51 52 51 51 52 54 55 56 58 58 59 59 60 60 61 61 61 61 61 61 61 61 61 61 61 61 61 61 61 61 61 61 61 61 61 61 62 62 62 62 62 62 62 62 62 62 62 62 62 62 62 62 62 62
55 54 55 55 55 55 55 55 55 55 55 55 55 56 55 55 55 55 55 55 55 56 56 56 56 57 57 56 53 51 49 48 49 50 51 51 52 53 53 53 51 51 51 50 50 50 50 50 51 52 52 51 52 52 53 54 56 58 58 59 59 60 60 60 61 61 61 61 61 61 61 61 61 61 61 61 61 61 61 61 61 61 61 61 61 61 62 62 62 62 62 62 62 62 62 62 62 62 62 62 62 62 62
51 51 52 53 54 54 54 53 53 54 54 55 55 54 53 54 55 55 55 55 55 56 56 56 55 53 53 52 50 48 48 48 48 50 51 50 50 50 51 51 51 51 51 50 50 51 51 52 52 52 52 53 53 53 53 55 57 58 58 59 59 60 60 60 61 61 61 61 61 61 61 61 61 61 61 61 61 61 61 61 61 61 61 61 61 61 61 61 61 61 62 62 62 62 62 62 62 62 62 62 62 62 62
48 48 49 49 49 50 51 50 50 51 51 54 52 49 47 50 51 52 54 52 52 53 53 53 51 49 49 49 48 48 48 48 48 48 50 49 49 49 51 51 51 52 51 51 51 52 52 53 53 53 53 53 53 53 53 56 57 58 58 59 59 59 60 60 60 61 61 61 61 61 61 61 61 61 61 61 61 61 61 61 61 61 61 61 61 61 61 61 61 61 61 61 61 62 62 62 62 62 62 62 62 62 62
47 48 47 47 48 48 49 48 48 48 48 53 51 47 46 47 48 48 49 48 48 48 48 48 49 50 51 50 49 48 48 48 49 49 49 49 50 50 50 51 51 51 52 52 53 53 53 54 54 54 53 54 54 54 54 57 57 58 58 59 59 59 60 60 60 61 61 61 61 61 61 61 61 61 61 61 61 61 61 61 61 61 61 61 61 61 61 61 61 61 61 61 61 61 62 62 62 62 62 62 62 62 62
47 47 47 48 48 48 48 48 48 48 48 50 49 48 48 47 47 47 47 47 47 47 47 47 48 51 53 53 51 48 48 48 50 51 50 50 51 52 52 53 53 53 53 54 54 54 55 55 55 54 54 53 54 54 54 57 57 58 58 59 59 59 59 60 60 60 61 61 61 61 61 61 61 61 62 62 62 62 62 62 62 62 62 62 62 61 62 61 61 61 61 61 61 61 61 61 61 62 62 62 62 62 61
47 48 47 48 48 48 48 47 48 48 48 48 48 48 48 48 47 47 47 48 48 48 48 48 49 51 53 51 49 48 48 49 52 54 54 53 54 55 55 55 55 54 54 54 55 55 56 56 55 55 54 53 53 54 55 56 57 58 58 59 59 59 59 60 60 60 60 60 61 61 61 61 61 61 61 61 62 62 62 62 62 62 62 62 62 62 62 62 62 61 61 61 61 61 61 61 61 61 61 61 61 61 61
48 48 48 48 48 48 48 48 48 48 48 48 48 48 48 47 48 48 49 51 51 50 50 49 49 50 49 48 48 48 49 50 52 53 53 54 54 54 55 55 55 55 55 55 55 56 56 55 54 54 54 54 54 54 55 57 57 58 58 59 59 59 60 60 60 60 60 60 60 61 61 61 61 61 61 61 61 61 61 61 62 62 62 62 62 62 62 62 62 62 62 62 62 62 61 61 61 61 61 61 61 61 61
48 48 48 47 47 47 48 48 48 48 48 48 48 48 48 48 50 52 53 53 52 50 50 50 49 48 48 49 49 50 51 52 53 53 54 55 55 54 53 54 55 55 54 55 56 56 56 55 54 53 54 54 54 54 54 56 57 58 58 59 59 59 60 60 60 60 60 60 61 61 61 61 61 61 61 61 61 61 61 61 62 62 62 62 62 62 62 62 62 62 62 62 62 62 62 62 62 62 62 62 62 62 62
48 48 47 47 48 48 49 49 50 50 51 51 50 50 51 52 53 53 53 53 52 50 50 49 48 48 49 50 50 51 52 53 53 53 54 55 55 55 54 54 55 55 55 55 55 56 55 55 55 54 53 54 54 54 54 56 57 57 58 59 59 59 59 60 60 60 60 60 60 61 61 61 61 61 61 61 61 61 61 61 62 62 62 62 62 62 62 62 62 62 62 62 62 62 62 62 62 62 62 62 62 62 62
49 48 47 48 48 49 49 50 52 53 53 53 52 51 52 53 53 53 52 51 50 49 50 49 49 49 49 50 51 51 51 53 54 54 54 54 54 54 55 54 54 54 55 55 55 55 54 54 54 54 54 54 54 54 55 55 57 57 58 58 59 59 59 59 60 60 60 60 60 60 61 61 61 61 61 61 61 61 61 62 62 62 62 62 62 62 62 62 62 62 62 63 63 63 63 63 62 62 62 62 62 62 62
52 51 49 49 49 48 49 51 53 54 54 54 54 53 53 53 53 53 50 49 49 49 48 48 48 48 49 51 51 51 53 54 53 53 53 53 53 53 53 53 52 53 54 54 54 54 54 54 54 55 55 54 54 55 55 55 57 57 58 58 58 59 59 59 60 60 60 60 60 60 61 61 61 61 61 61 61 61 61 61 62 62 62 62 62 62 62 62 62 62 62 63 63 63 63 63 63 63 63 63 62 62 62
53 53 52 52 50 49 50 51 53 53 54 53 54 54 54 54 54 53 51 50 49 48 48 50 51 51 51 52 51 51 53 53 52 51 50 51 51 52 53 53 53 53 54 55 55 54 54 54 54 55 55 55 55 54 54 55 56 57 58 58 58 58 59 59 60 60 59 60 60 60 60 61 61 61 61 61 61 61 61 61 61 61 62 62 62 62 62 62 62 62 62 62 63 63 63 63 63 63 63 63 63 63 63
53 53 53 53 53 51 52 53 53 53 53 53 54 55 55 54 53 52 50 50 50 51 52 53 54 54 54 53 53 53 54 53 53 52 51 51 51 51 53 53 54 54 54 54 54 54 54 54 54 55 55 55 55 55 55 55 55 55 57 58 58 58 59 59 59 60 59 60 60 60 60 60 61 61 61 61 61 61 61 61 61 61 61 61 61 61 61 62 62 62 62 62 62 62 63 63 63 63 63 64 64 64 64
52 53 53 54 53 52 52 51 50 51 52 53 54 55 55 54 53 51 50 51 52 53 53 54 54 55 55 55 55 55 54 53 53 53 52 51 51 52 53 53 53 54 53 54 54 54 54 54 54 54 54 54 54 54 54 54 54 54 56 57 58 58 58 59 59 59 59 60 60 60 60 60 60 60 60 60 60 61 61 61 61 61 61 61 61 61 61 61 61 62 62 62 62 62 62 63 63 63 63 63 63 64 64
50 52 52 53 52 51 51 52 51 51 51 52 53 54 54 53 51 50 50 52 53 53 54 54 55 55 55 55 55 54 54 53 53 53 53 52 53 53 52 52 52 53 53 53 54 54 54 54 54 54 54 54 53 53 53 53 54 54 54 56 57 57 58 58 59 59 59 60 60 60 60 60 60 60 60 60 60 61 61 61 61 61 61 61 61 61 61 61 61 62 62 62 62 62 63 63 63 63 63 63 63 63 63
50 50 51 50 50 50 50 51 52 53 54 53 53 54 54 53 51 50 51 53 53 54 54 54 55 55 55 56 55 54 55 54 53 52 52 53 53 52 52 52 52 52 53 53 53 53 53 53 53 53 53 52 52 53 53 53 54 54 54 55 57 57 58 58 58 59 59 59 60 60 60 60 60 60 60 60 60 61 61 61 61 61 61 61 61 61 61 62 62 62 62 62 63 63 63 63 63 63 63 63 63 63 63
51 51 51 51 50 49 50 52 53 53 54 54 54 54 54 53 53 53 53 54 53 53 53 55 55 55 55 56 55 54 54 54 53 53 51 52 52 53 53 52 52 53 53 53 53 53 53 53 53 53 52 52 52 53 53 53 54 54 54 55 55 56 57 57 58 58 59 59 60 60 60 60 60 60 60 60 61 61 61 61 61 61 61 61 61 61 61 62 62 62 62 62 63 63 63 63 63 63 63 63 63 63 63
51 50 50 50 50 50 49 51 51 52 53 53 53 53 54 54 54 54 55 53 53 53 54 54 54 55 55 56 55 55 54 54 53 53 53 53 53 53 53 53 53 54 54 53 53 53 52 52 52 52 53 53 53 53 53 54 54 54 54 54 55 55 56 56 57 57 58 59 59 59 60 60 60 60 60 60 61 61 61 61 61 61 61 61 61 61 61 62 62 62 62 62 63 63 63 63 64 64 64 64 63 63 63
53 53 51 52 52 52 49 50 51 51 53 52 53 53 54 54 55 55 54 53 53 53 53 54 54 55 55 56 56 56 54 53 53 53 53 53 54 55 55 55 55 54 53 53 52 52 52 52 52 53 53 53 53 53 53 54 54 54 54 55 55 55 55 55 56 56 57 58 58 59 59 60 60 60 60 60 61 61 61 61 61 62 62 62 61 61 61 62 62 62 62 62 62 63 63 63 64 64 64 64 64 64 63
54 54 53 53 53 53 51 52 52 53 53 54 54 55 55 55 55 54 53 52 53 54 54 54 55 55 55 55 55 55 55 54 53 53 53 54 55 55 54 55 54 53 53 52 52 52 52 52 53 53 53 53 53 53 53 54 54 54 54 55 55 55 55 55 55 55 56 57 57 58 59 59 59 60 60 60 61 61 61 61 61 61 62 62 62 62 62 62 62 62 62 62 62 63 63 63 64 64 64 64 64 64 64
54 55 54 54 54 53 52 52 53 54 55 55 55 56 56 56 55 54 52 52 53 54 55 55 55 55 55 54 53 53 53 54 53 53 54 55 54 54 53 53 53 52 53 53 53 53 53 53 52 52 53 53 53 53 53 53 53 54 54 54 55 55 55 55 56 56 55 56 56 57 58 59 59 60 60 60 61 61 61 61 61 61 61 61 62 62 62 62 62 62 62 62 62 63 63 64 64 64 64 64 64 64 64
55 54 53 53 52 51 51 51 53 55 56 56 56 57 57 56 54 53 52 53 54 55 56 55 55 55 54 53 52 51 53 54 54 54 54 54 53 53 53 53 53 53 53 53 53 53 53 53 52 52 52 53 53 53 53 53 53 53 54 54 54 54 55 56 56 56 56 56 55 56 57 58 59 59 60 60 60 61 61 61 61 61 61 61 61 61 62 62 62 62 62 62 62 63 63 64 64 64 64 64 64 64 64
53 52 50 49 50 51 51 53 54 56 56 57 57 57 56 54 53 51 51 53 55 55 56 55 54 53 53 51 51 52 54 55 54 53 53 52 52 53 53 53 53 53 53 53 53 53 53 53 53 53 53 52 52 52 53 53 53 53 53 54 54 54 55 56 56 56 55 56 55 56 56 57 58 59 59 60 60 60 60 61 61 61 61 61 61 61 61 61 62 62 62 62 62 63 63 64 64 64 65 64 64 64 64
51 50 49 50 51 53 53 54 55 56 57 56 55 54 53 51 50 51 53 54 55 55 53 53 52 53 53 53 53 54 55 54 53 52 51 52 52 53 53 53 53 53 53 53 53 53 53 53 53 53 54 53 52 52 52 53 53 53 53 54 54 54 54 54 55 55 55 55 55 55 55 56 57 58 59 59 60 60 60 60 60 60 60 60 61 61 61 61 61 62 62 62 62 63 63 64 64 65 65 64 64 64 64
51 51 51 52 53 54 54 55 56 56 56 54 53 51 49 49 49 50 53 54 54 53 51 50 51 53 54 55 56 55 54 52 51 51 51 53 53 53 53 53 53 53 53 53 53 53 53 53 53 54 54 53 53 52 52 53 53 53 53 54 53 53 53 53 54 54 54 54 55 55 55 55 56 57 58 58 59 59 59 59 60 60 60 60 60 61 61 61 61 62 62 62 62 62 63 64 64 64 64 64 64 64 64
53 53 52 51 52 53 54 55 56 55 54 52 50 50 50 50 49 50 53 54 54 54 51 50 51 53 56 56 55 54 52 51 51 52 53 53 53 53 53 53 53 53 53 53 53 53 52 53 53 53 53 53 53 53 53 53 53 53 53 53 53 53 53 53 53 54 54 54 55 55 55 55 55 55 55 56 57 57 57 58 59 59 60 60 60 60 61 61 61 61 62 62 62 62 62 63 63 64 63 63 63 63 63
54 54 54 53 53 54 55 55 55 54 53 53 52 53 54 53 52 52 53 54 54 53 51 52 53 55 56 55 54 52 50 51 52 53 54 54 53 53 52 52 52 52 52 53 53 52 52 52 52 52 52 52 52 53 53 54 54 53 53 53 53 53 53 53 53 53 53 54 54 54 54 54 54 54 54 55 56 56 56 58 59 59 60 60 60 60 60 60 61 61 61 61 62 62 62 62 62 62 62 63 63 63 63
55 55 55 55 55 55 55 53 53 54 53 53 54 55 55 53 53 53 53 53 51 50 51 53 55 55 53 53 52 50 50 52 53 54 54 53 53 52 52 52 52 52 52 52 52 51 51 51 51 51 51 52 52 52 52 53 53 53 53 53 53 53 53 53 53 53 53 54 54 54 55 55 54 54 55 56 56 56 56 57 58 59 59 59 59 59 59 59 60 60 60 61 61 61 61 62 62 62 62 62 62 63 63
55 55 55 55 55 54 54 52 52 54 53 54 55 55 55 54 53 51 49 50 50 51 53 55 55 54 51 49 49 50 50 53 54 54 53 52 51 51 51 51 51 51 51 51 50 50 52 49 49 50 50 51 51 51 51 52 52 53 53 53 53 53 52 53 53 53 54 54 54 54 55 55 55 55 56 57 57 57 57 57 57 58 58 58 58 58 58 58 58 59 59 59 60 60 60 61 61 61 62 62 62 63 63
55 54 54 54 54 53 53 51 51 53 55 55 54 54 53 53 51 50 49 50 52 53 54 56 55 53 49 48 48 50 52 53 53 53 52 51 50 50 50 50 49 49 50 49 50 50 52 48 48 49 49 49 50 51 51 51 52 52 53 53 53 52 52 52 53 53 54 54 54 54 55 55 56 56 57 57 57 57 57 57 57 57 57 57 57 57 57 57 57 57 58 58 58 59 59 60 60 61 61 62 62 62 62
54 53 53 53 53 53 52 51 50 52 54 55 55 55 55 52 50 50 51 53 53 54 55 54 53 52 49 48 48 51 53 52 52 51 49 50 50 50 49 49 49 48 48 49 50 51 50 48 48 48 48 50 50 51 50 51 51 51 52 52 52 52 51 52 53 53 53 53 53 53 54 55 56 56 57 57 57 56 56 56 56 56 56 57 57 57 57 57 57 57 57 57 57 57 58 58 59 60 61 62 62 62 62
52 53 53 53 54 53 53 51 52 53 54 55 55 56 56 54 53 52 52 53 54 55 55 53 51 50 50 49 51 53 52 51 51 52 51 51 51 51 50 49 48 47 48 48 50 51 50 48 47 47 48 49 50 50 50 50 50 50 51 51 51 51 51 52 52 53 53 53 53 53 54 55 56 57 57 57 56 55 55 55 55 55 55 55 55 56 57 57 57 56 56 56 56 56 57 57 59 60 61 62 62 61 61
49 51 52 53 53 53 53 52 52 53 54 55 55 55 55 53 52 51 53 54 55 54 54 53 51 51 50 52 53 53 50 49 50 51 52 51 51 51 52 50 46 44 45 46 48 50 49 48 48 48 48 48 49 49 49 49 49 50 50 50 50 50 51 51 52 52 52 52 53 53 53 55 56 57 57 57 56 55 54 54 54 54 54 54 55 55 55 56 56 56 56 55 55 55 56 57 58 59 60 60 60 60 60
50 50 53 53 53 53 52 51 52 53 54 54 54 54 54 52 51 51 53 55 54 53 52 53 53 52 50 53 53 51 49 50 50 52 53 53 52 51 51 48 46 44 44 43 44 46 46 45 47 48 49 48 48 48 48 48 49 50 50 50 50 50 51 51 52 52 52 52 53 53 53 56 57 57 57 57 56 55 54 54 53 53 53 53 54 54 55 55 55 55 55 55 55 55 55 56 57 57 58 58 58 58 59
53 53 54 54 53 52 50 51 52 53 54 54 54 53 53 50 50 51 54 55 54 54 54 55 54 53 52 53 52 50 49 50 51 52 53 53 53 51 50 50 49 48 46 44 43 42 44 43 44 48 49 48 47 47 47 48 48 49 49 49 49 50 50 51 51 52 52 52 53 53 53 57 57 57 57 56 56 55 54 53 53 53 53 53 53 53 53 54 54 55 55 54 54 54 55 56 56 56 57 57 57 57 58
53 53 53 53 52 52 52 52 52 53 53 54 54 53 52 50 51 53 55 54 54 53 53 53 53 53 52 52 52 51 49 50 51 52 53 53 53 53 51 51 51 48 43 43 42 41 42 44 47 48 48 46 46 47 47 47 47 48 51 50 49 49 50 50 51 51 51 52 52 53 53 57 57 57 57 56 55 55 54 53 52 52 52 52 53 53 53 54 54 55 55 55 55 54 54 55 55 55 56 56 57 57 58
53 52 51 51 50 50 51 51 52 53 53 53 54 53 53 53 53 54 55 54 53 52 51 52 51 51 53 53 52 51 49 49 51 52 52 53 54 54 53 52 50 48 46 45 45 44 45 48 48 47 45 45 45 47 48 47 47 47 50 49 48 48 49 50 50 50 51 51 52 53 53 57 57 57 57 56 55 54 53 52 52 51 51 52 53 53 53 53 54 54 55 54 54 54 54 54 54 55 55 56 57 57 58
53 53 51 50 50 50 50 51 52 53 53 54 54 54 54 54 54 54 54 53 52 51 50 51 51 51 53 53 53 52 50 49 50 51 52 53 54 54 54 53 51 50 48 48 48 48 49 50 48 46 45 45 46 47 46 46 46 46 48 48 48 48 49 49 49 50 50 51 51 52 53 57 58 57 56 55 54 53 52 52 51 51 52 52 53 53 53 53 53 54 54 54 54 54 54 53 54 54 55 56 57 57 58
53 53 52 51 50 49 49 50 52 53 54 54 54 54 54 54 54 54 54 53 53 53 51 50 50 51 53 54 53 52 51 49 49 50 51 53 53 54 53 52 53 53 52 52 51 50 50 49 48 47 46 46 46 46 45 45 45 46 46 47 47 48 48 48 48 48 49 50 50 51 53 57 58 57 56 55 54 53 52 51 51 51 51 52 52 53 53 53 53 54 54 54 54 54 53 53 53 54 55 56 57 57 57
52 53 52 51 50 49 49 50 52 53 53 54 54 54 54 54 54 54 54 53 53 52 51 51 51 52 53 54 53 52 50 48 48 50 51 52 53 53 53 51 51 51 52 52 52 51 50 49 48 48 48 46 45 45 45 44 45 46 46 47 47 47 48 47 47 48 48 49 50 51 54 57 57 57 55 54 53 52 51 51 51 52 52 52 52 53 53 53 53 54 54 54 54 54 53 53 53 53 55 56 56 57 57
50 51 52 50 49 49 49 50 52 53 53 53 54 54 54 54 54 54 54 51 52 53 52 52 53 53 54 54 53 52 50 49 50 50 51 52 52 53 52 50 49 49 50 49 50 50 51 50 50 50 49 47 46 45 45 44 45 45 46 46 47 47 48 47 48 48 48 49 49 51 55 57 57 57 55 54 52 51 51 50 51 52 52 52 52 52 53 53 53 53 54 55 54 53 52 52 53 53 54 55 56 57 57
52 52 51 50 49 49 50 51 52 52 52 53 54 54 54 54 54 53 52 51 52 53 53 53 53 53 54 54 53 52 51 50 50 51 52 52 52 52 52 50 49 48 48 48 48 48 50 50 51 51 50 49 47 45 44 44 44 45 46 46 47 47 47 47 48 49 49 49 50 52 56 57 57 56 54 53 51 50 51 51 51 52 52 52 52 52 52 52 53 53 54 54 54 53 52 52 53 53 54 55 56 57 57